MIRATA (43015 NORAD) Tracking and Keplerian Element Data

This shows tracking and keplerian element data for the satellite.

Feedback or suggestion? Click here.




ElementValue
Catalog43015
NameMIRATA
Epoch Orbit5788
Epoch Day349.2147503
Epoch Year2018
RAAN272.7385
Inclination97.7141
Eccentricity0.0257876
Argument of Perigee42.2414
Mean Anonmoly319.8349
Mean Motion14.78546351
Decay Rate1.392E-05
L11 43015U 17073C 18349.21475030 .00001392 00000-0 11374-3 0 9992
L22 43015 97.7141 272.7385 0257876 42.2414 319.8349 14.78546351 57889

Live tracking and technical data element details for MIRATA (NORAD 43015). MIRATA can be tracked NOW for your location showing map with azimuth and elevation plus other details from your city location.

Track the satellite on the map from your city or location and see movement details for azimuth, elevation, latitude, longitude, range, height, and movement on the map or in text.







IsCatalogInMostPopularTable: catalog: 43015, numindb: 98
Update: records affected: 1



GetName: 43015 MIRATA

Hit Count: updated at: Sat, 15 Dec 2018 13:13:26 GMT